When you browse on this site, cookies collect data to enhance your experience and personalize the content and advertising you see.
Visit our Privacy Policy to learn more. By continuing to use the site, you agree to this use of cookies and data.
  • Em Portugal
  • Lista de países
  • Para 7 dias
  • Temperatura da água
  • Mapa do tempo
  • Widgets de tempo
  • user-avatar
    Iniciar Sessão

    Previsão horária em Laszkar Gah

    Hoje, 18 Outubro, Sexta-feira

    Tempo Temperatura Precipitação Vento Pressão Humidade
    00:00 +16°C° 0 mm 2 m/s 694 mmHg 23%
    01:00 +16°C° 0 mm 2 m/s 694 mmHg 23%
    02:00 +15°C° 0 mm 2 m/s 694 mmHg 25%
    03:00 +14°C° 0 mm 2 m/s 693 mmHg 27%
    04:00 +14°C° 0 mm 2 m/s 694 mmHg 27%
    05:00 +15°C° 0 mm 2 m/s 694 mmHg 26%
    06:00 +16°C° 0 mm 2 m/s 695 mmHg 25%
    07:00 +17°C° 0 mm 2 m/s 696 mmHg 23%
    08:00 +19°C° 0 mm 2 m/s 696 mmHg 21%
    09:00 +21°C° 0 mm 2 m/s 697 mmHg 18%
    10:00 +24°C° 0 mm 2 m/s 697 mmHg 15%
    11:00 +26°C° 0 mm 2 m/s 697 mmHg 14%
    12:00 +27°C° 0 mm 2 m/s 696 mmHg 12%
    13:00 +29°C° 0 mm 2 m/s 696 mmHg 11%
    14:00 +29°C° 0 mm 2 m/s 695 mmHg 11%
    15:00 +29°C° 0 mm 2 m/s 695 mmHg 11%
    16:00 +29°C° 0 mm 2 m/s 695 mmHg 11%
    17:00 +26°C° 0 mm 2 m/s 695 mmHg 14%
    18:00 +23°C° 0 mm 2 m/s 694 mmHg 17%
    19:00 +20°C° 0 mm 1 m/s 694 mmHg 20%
    20:00 +19°C° 0 mm 1 m/s 694 mmHg 21%
    21:00 +18°C° 0 mm 1 m/s 694 mmHg 22%
    22:00 +18°C° 0 mm 1 m/s 695 mmHg 22%
    23:00 +18°C° 0 mm 1 m/s 695 mmHg 23%

    Amanhã, 19 Outubro, Sábado

    Tempo Temperatura Precipitação Vento Pressão Humidade
    00:00 +16°C° 0 mm 1 m/s 695 mmHg 23%
    01:00 +16°C° 0 mm 1 m/s 694 mmHg 24%
    02:00 +16°C° 0 mm 1 m/s 694 mmHg 24%
    03:00 +16°C° 0 mm 2 m/s 695 mmHg 25%
    04:00 +15°C° 0 mm 2 m/s 695 mmHg 25%
    05:00 +16°C° 0 mm 2 m/s 695 mmHg 24%
    06:00 +18°C° 0 mm 1 m/s 696 mmHg 22%
    07:00 +19°C° 0 mm 1 m/s 697 mmHg 21%
    08:00 +22°C° 0 mm 1 m/s 697 mmHg 18%
    09:00 +24°C° 0 mm 1 m/s 698 mmHg 16%
    10:00 +27°C° 0 mm 1 m/s 698 mmHg 13%
    11:00 +28°C° 0 mm 1 m/s 698 mmHg 12%
    12:00 +29°C° 0 mm 1 m/s 698 mmHg 11%
    13:00 +30°C° 0 mm 1 m/s 697 mmHg 10%
    14:00 +30°C° 0 mm 2 m/s 697 mmHg 10%
    15:00 +30°C° 0 mm 2 m/s 696 mmHg 10%
    16:00 +30°C° 0 mm 2 m/s 696 mmHg 10%
    17:00 +28°C° 0 mm 3 m/s 696 mmHg 11%
    18:00 +26°C° 0 mm 3 m/s 696 mmHg 13%
    19:00 +24°C° 0 mm 3 m/s 696 mmHg 14%
    20:00 +22°C° 0 mm 3 m/s 696 mmHg 15%
    21:00 +22°C° 0 mm 3 m/s 696 mmHg 16%
    22:00 +21°C° 0 mm 3 m/s 696 mmHg 16%
    23:00 +20°C° 0 mm 2 m/s 695 mmHg 18%

    Depois de amanhã, 20 Outubro, Domingo

    Tempo Temperatura Precipitação Vento Pressão Humidade
    00:00 +18°C° 0 mm 2 m/s 695 mmHg 20%
    01:00 +18°C° 0 mm 1 m/s 695 mmHg 21%
    02:00 +18°C° 0 mm 1 m/s 695 mmHg 22%
    03:00 +16°C° 0 mm 1 m/s 695 mmHg 23%
    04:00 +16°C° 0 mm 1 m/s 695 mmHg 23%
    05:00 +18°C° 0 mm 1 m/s 695 mmHg 22%
    06:00 +19°C° 0 mm 1 m/s 696 mmHg 20%
    07:00 +18°C° 0 mm 0 m/s 697 mmHg 19%
    08:00 +21°C° 0 mm 0 m/s 697 mmHg 16%
    09:00 +23°C° 0 mm 0 m/s 697 mmHg 14%
    10:00 +26°C° 0 mm 0 m/s 698 mmHg 11%
    11:00 +29°C° 0 mm 1 m/s 697 mmHg 10%
    12:00 +30°C° 0 mm 2 m/s 697 mmHg 9%
    13:00 +31°C° 0 mm 2 m/s 697 mmHg 8%
    14:00 +31°C° 0 mm 2 m/s 696 mmHg 9%
    15:00 +31°C° 0 mm 3 m/s 696 mmHg 9%
    16:00 +31°C° 0 mm 3 m/s 696 mmHg 9%
    17:00 +28°C° 0 mm 3 m/s 695 mmHg 11%
    18:00 +25°C° 0 mm 3 m/s 695 mmHg 13%
    19:00 +21°C° 0 mm 3 m/s 695 mmHg 16%
    20:00 +20°C° 0 mm 2 m/s 695 mmHg 17%
    21:00 +19°C° 0 mm 2 m/s 695 mmHg 18%
    22:00 +18°C° 0 mm 2 m/s 694 mmHg 20%
    23:00 +18°C° 0 mm 1 m/s 694 mmHg 21%

    21 Outubro, Segunda-feira

    Tempo Temperatura Precipitação Vento Pressão Humidade
    00:00 +16°C° 0 mm 1 m/s 694 mmHg 22%
    01:00 +14°C° 0 mm 0 m/s 694 mmHg 24%
    02:00 +14°C° 0 mm 0 m/s 694 mmHg 24%
    03:00 +15°C° 0 mm 1 m/s 693 mmHg 24%
    04:00 +14°C° 0 mm 1 m/s 693 mmHg 25%
    05:00 +16°C° 0 mm 1 m/s 694 mmHg 23%
    06:00 +19°C° 0 mm 1 m/s 695 mmHg 20%
    07:00 +20°C° 0 mm 1 m/s 695 mmHg 18%
    08:00 +23°C° 0 mm 1 m/s 696 mmHg 16%
    09:00 +25°C° 0 mm 1 m/s 696 mmHg 13%
    10:00 +28°C° 0 mm 1 m/s 696 mmHg 10%
    11:00 +29°C° 0 mm 1 m/s 696 mmHg 9%
    12:00 +30°C° 0 mm 2 m/s 695 mmHg 8%
    13:00 +31°C° 0 mm 3 m/s 695 mmHg 7%
    14:00 +31°C° 0 mm 3 m/s 695 mmHg 7%
    15:00 +31°C° 0 mm 3 m/s 694 mmHg 7%
    16:00 +31°C° 0 mm 3 m/s 694 mmHg 7%
    17:00 +28°C° 0 mm 3 m/s 694 mmHg 9%
    18:00 +26°C° 0 mm 3 m/s 693 mmHg 10%
    19:00 +22°C° 0 mm 3 m/s 693 mmHg 12%
    20:00 +21°C° 0 mm 3 m/s 693 mmHg 13%
    21:00 +20°C° 0 mm 2 m/s 693 mmHg 14%
    22:00 +19°C° 0 mm 2 m/s 693 mmHg 15%
    23:00 +18°C° 0 mm 2 m/s 693 mmHg 16%

    22 Outubro, Terça-feira

    Tempo Temperatura Precipitação Vento Pressão Humidade
    00:00 +18°C° 0 mm 2 m/s 692 mmHg 16%
    01:00 +19°C° 0 mm 1 m/s 692 mmHg 17%
    02:00 +18°C° 0 mm 2 m/s 692 mmHg 17%
    03:00 +18°C° 0 mm 2 m/s 692 mmHg 17%
    04:00 +17°C° 0 mm 2 m/s 692 mmHg 18%
    05:00 +18°C° 0 mm 2 m/s 693 mmHg 17%
    06:00 +19°C° 0 mm 2 m/s 693 mmHg 16%
    07:00 +20°C° 0 mm 2 m/s 694 mmHg 16%
    08:00 +23°C° 0 mm 2 m/s 694 mmHg 14%
    09:00 +26°C° 0 mm 3 m/s 695 mmHg 13%
    10:00 +28°C° 0 mm 3 m/s 695 mmHg 11%
    11:00 +29°C° 0 mm 4 m/s 695 mmHg 11%
    12:00 +32°C° 0 mm 5 m/s 694 mmHg 11%
    13:00 +33°C° 0 mm 7 m/s 694 mmHg 11%
    14:00 +32°C° 0 mm 7 m/s 694 mmHg 12%
    15:00 +32°C° 0 mm 8 m/s 693 mmHg 13%
    16:00 +31°C° 0 mm 9 m/s 693 mmHg 14%
    17:00 +28°C° 0 mm 8 m/s 693 mmHg 16%
    18:00 +26°C° 0 mm 7 m/s 693 mmHg 17%
    19:00 +22°C° 0 mm 6 m/s 693 mmHg 19%
    20:00 +21°C° 0 mm 5 m/s 693 mmHg 20%
    21:00 +20°C° 0 mm 5 m/s 693 mmHg 20%
    22:00 +18°C° 0 mm 4 m/s 693 mmHg 21%
    23:00 +17°C° 0 mm 4 m/s 692 mmHg 22%

    23 Outubro, Quarta-feira

    Tempo Temperatura Precipitação Vento Pressão Humidade
    00:00 +16°C° 0 mm 3 m/s 692 mmHg 23%
    01:00 +14°C° 0 mm 3 m/s 692 mmHg 24%
    02:00 +14°C° 0 mm 3 m/s 692 mmHg 25%
    03:00 +13°C° 0 mm 3 m/s 692 mmHg 25%
    04:00 +13°C° 0 mm 3 m/s 692 mmHg 26%
    05:00 +13°C° 0 mm 3 m/s 692 mmHg 25%
    06:00 +13°C° 0 mm 3 m/s 693 mmHg 25%
    07:00 +13°C° 0 mm 3 m/s 693 mmHg 24%
    08:00 +16°C° 0 mm 3 m/s 693 mmHg 21%
    09:00 +18°C° 0 mm 3 m/s 694 mmHg 19%
    10:00 +20°C° 0 mm 3 m/s 694 mmHg 16%
    11:00 +22°C° 0 mm 3 m/s 694 mmHg 15%
    12:00 +24°C° 0 mm 2 m/s 693 mmHg 14%
    13:00 +26°C° 0 mm 2 m/s 693 mmHg 13%
    14:00 +26°C° 0 mm 3 m/s 693 mmHg 13%
    15:00 +27°C° 0 mm 3 m/s 693 mmHg 13%
    16:00 +27°C° 0 mm 4 m/s 692 mmHg 13%
    17:00 +25°C° 0 mm 4 m/s 692 mmHg 14%
    18:00 +21°C° 0 mm 4 m/s 692 mmHg 14%
    19:00 +19°C° 0 mm 4 m/s 692 mmHg 15%
    20:00 +17°C° 0 mm 3 m/s 692 mmHg 15%
    21:00 +16°C° 0 mm 3 m/s 692 mmHg 15%
    22:00 +14°C° 0 mm 2 m/s 692 mmHg 14%
    23:00 +14°C° 0 mm 2 m/s 692 mmHg 15%
    Mostrar mais